Temp_Advection
nan nan nan nan nan nan nan nan nan nan nan nan nan nan nan nan nan nan nan nan nan nan nan nan nan nan nan nan nan nan nan nan nan nan nan nan nan nan nan nan nan nan nan
nan 2 2 2 2 1 -1 -1 0 1 2 1 1 1 1 1 0 0 0 0 0 0 0 0 0 0 0 0 0 1 1 1 1 -1 -1 -0 -0 -0 -0 0 -0 -0 nan
nan 2 2 1 1 -0 -2 -1 0 1 2 1 1 1 1 1 0 0 0 0 0 0 0 0 0 0 0 1 1 1 1 1 0 -0 -1 -0 -0 -0 -0 -0 -0 -0 nan
nan 2 1 1 0 -1 -2 -1 0 1 1 0 1 1 1 1 0 0 0 0 0 0 0 0 0 0 0 0 0 1 1 0 -0 -0 -0 -0 -0 -1 0 0 -0 -0 nan
nan 1 1 1 1 -1 -1 0 1 1 1 1 1 1 1 0 0 0 0 0 1 0 0 0 0 0 0 1 1 0 0 -0 -0 -0 -0 -0 -0 -0 -0 -0 -0 -0 nan
nan 0 0 1 -0 -1 0 1 1 1 1 2 2 1 1 0 0 0 1 1 1 0 0 0 0 0 0 0 1 1 1 0 -0 -0 -0 -0 -0 -0 0 -0 -1 -1 nan
nan 0 -0 -1 -1 -0 0 1 1 1 2 2 2 1 1 0 0 0 1 1 1 0 0 -0 0 0 1 -0 0 1 -0 0 0 0 -0 -0 -0 -0 -0 -0 0 -0 nan
nan -0 -0 -1 -1 -0 0 1 1 2 2 2 1 1 0 0 0 0 1 1 0 0 0 0 0 0 1 1 -0 -0 -0 -0 0 1 1 -0 0 1 0 -0 -0 -1 nan
nan 0 1 0 0 0 0 1 1 2 2 2 1 1 1 0 1 1 1 0 0 0 0 0 -0 -0 0 1 1 -0 -0 -0 -0 0 0 -0 -1 1 1 -0 -0 -0 nan
nan 0 1 1 0 -0 0 1 2 2 2 2 1 1 1 1 1 0 0 0 0 0 0 0 0 0 0 1 1 1 -0 -0 0 -0 -0 0 0 -1 0 0 -0 -1 nan
nan 1 1 0 0 0 1 2 3 3 2 1 1 1 1 1 0 0 0 0 0 0 -0 0 0 0 0 0 1 1 2 1 0 -0 -0 -1 -0 -1 0 1 1 1 nan
nan 1 1 1 1 2 2 3 3 3 1 1 1 1 1 1 0 0 0 0 0 0 -0 -0 -0 0 0 0 0 0 1 1 0 -0 -1 -0 -0 -1 -1 0 0 1 nan
nan 1 1 1 2 3 3 3 2 2 1 1 1 1 0 0 0 0 0 0 0 0 -0 -0 -0 -0 -0 -0 0 -0 -0 -0 -0 -0 0 -0 -0 -0 -1 -1 -1 -1 nan
nan 2 2 2 2 3 3 3 1 0 0 0 0 -0 -0 0 0 0 0 0 -0 -0 -0 -0 -0 -0 -0 -0 -0 -0 -1 0 1 1 0 -0 -0 -0 -1 -0 -1 -1 nan
nan 2 2 3 3 3 2 1 0 0 1 1 0 -0 0 0 0 0 0 0 -0 -0 -0 -0 -0 -0 -0 -1 -1 -1 -0 0 1 1 0 -0 -1 -0 -1 -0 -1 -1 nan
nan 2 2 1 1 1 1 0 1 1 1 1 0 1 0 0 -0 -0 0 0 -0 -0 -0 -0 -0 -1 -1 -1 -1 -1 -1 -0 -0 0 -0 0 -0 -0 -1 -0 0 -1 nan
nan -0 0 0 0 -0 0 0 0 1 1 1 1 1 1 0 0 0 0 -0 -0 -0 -0 -0 -1 -1 -1 -1 -1 -0 -1 -0 -0 -0 1 0 1 -0 -0 -0 -0 -0 nan
nan -0 -0 0 0 1 0 0 -0 -0 0 0 1 0 1 0 0 0 -0 -0 -0 -0 -0 -0 -0 -0 -0 -0 -0 -0 0 -0 -0 -0 1 -0 0 0 -0 -0 0 -0 nan
nan 1 1 1 1 1 0 0 0 0 0 -0 -0 0 0 0 0 0 -0 -0 -0 -0 -0 -0 -0 -0 -0 -0 -0 -0 -0 -0 -0 0 -0 0 0 0 0 -0 0 0 nan
nan 0 0 1 1 0 0 0 0 0 0 0 0 0 0 0 0 0 -0 -0 -0 -0 -0 -0 -0 -0 -0 -0 -0 -0 -0 0 0 -0 0 1 0 0 0 0 0 0 nan
nan 1 1 0 0 0 0 0 0 0 0 0 0 0 0 0 0 -0 -0 -0 -0 -0 -0 -0 -0 -0 -0 -0 -0 -0 -0 0 0 0 0 0 1 0 -0 -0 -0 0 nan
nan 0 0 0 0 0 0 0 0 0 0 0 0 -0 0 0 -0 -0 -0 -0 -0 -0 -0 -0 -0 -0 -0 -0 -0 -0 -0 -0 -0 -0 -0 -0 -0 -0 -0 -0 -0 -0 nan
nan 0 0 0 0 0 0 0 0 0 0 0 0 0 0 0 -0 -0 -0 -0 -0 -0 -0 -0 -0 -0 -0 -0 -0 -0 0 -0 -0 -0 -0 -0 -0 -0 -1 -0 -0 -0 nan
nan 0 0 0 0 0 0 0 0 0 0 0 0 0 0 -0 -0 -0 -0 -0 -0 -0 -0 -0 -0 -0 -0 -0 -0 -0 0 -0 -0 -0 -0 -0 -1 -0 -0 -0 -0 -0 nan
nan 0 0 0 0 0 0 0 0 0 0 0 0 -0 -0 -0 -0 -0 -0 -0 -0 -0 -0 -0 -0 -0 -0 -0 -0 -0 -0 -0 -0 -0 -0 -0 -0 -0 -0 -0 -0 -0 nan
nan nan nan nan nan nan nan nan nan nan nan nan nan nan nan nan nan nan nan nan nan nan nan nan nan nan nan nan nan nan nan nan nan nan nan nan nan nan nan nan nan nan nan
Wind_Speed
54 56 57 56 59 59 60 56 52 50 46 43 39 34 30 26 22 18 16 15 14 13 13 14 14 16 18 20 20 21 22 22 32 43 38 37 36 38 39 37 39 40 42
50 51 51 52 56 56 57 54 52 49 44 43 39 34 31 27 22 19 16 15 14 14 14 14 15 17 18 19 20 22 24 25 28 40 39 41 39 39 41 43 41 40 40
40 46 48 51 53 54 53 52 50 46 44 44 39 36 31 26 22 19 17 15 15 14 14 14 15 16 18 19 20 23 24 24 28 36 45 43 42 41 44 42 41 43 41
37 44 48 50 53 52 52 50 47 45 46 43 40 35 30 26 22 19 17 15 15 14 14 14 15 17 18 20 22 24 26 28 30 36 42 46 43 42 41 46 48 40 43
33 39 43 47 47 49 49 47 46 47 45 42 39 35 31 26 21 18 16 15 14 14 13 13 15 17 18 19 21 22 25 28 30 36 42 44 43 44 42 44 48 51 47
34 35 37 41 46 47 46 48 48 48 45 41 38 34 29 24 20 17 16 15 13 12 12 13 15 17 18 21 23 23 23 27 32 36 42 45 46 43 47 45 50 49 56
33 36 38 41 43 44 46 49 49 47 45 42 37 31 26 22 19 17 15 14 12 11 12 13 15 17 20 21 23 22 25 26 28 33 38 40 46 44 48 51 50 48 48
33 34 37 39 41 43 46 49 50 48 44 40 35 29 24 21 17 15 13 12 10 11 12 13 15 18 19 21 21 24 27 27 27 30 33 39 42 45 45 47 47 51 48
32 33 35 39 43 47 50 51 49 45 41 36 30 27 22 19 16 13 12 10 10 11 12 12 14 17 18 19 22 26 27 28 29 31 33 37 39 36 34 38 42 42 47
32 34 36 40 44 48 50 49 46 42 37 33 28 23 20 17 14 12 10 10 10 10 10 12 13 15 17 19 21 24 28 29 33 36 38 36 33 32 30 30 37 41 44
30 32 35 39 43 47 49 47 43 38 33 29 26 23 18 15 12 11 11 10 8 9 9 11 13 15 17 19 22 24 27 31 35 36 38 36 33 35 36 35 35 36 41
32 34 38 42 46 48 47 44 39 36 32 29 25 21 17 13 13 11 9 7 7 9 9 11 13 15 17 20 22 24 27 31 33 37 34 36 38 39 42 41 41 40 40
33 36 40 43 45 45 44 42 38 33 32 30 25 20 17 15 11 8 5 4 5 7 7 10 13 15 18 20 22 25 28 29 32 32 34 37 39 41 43 43 43 44 42
36 39 42 44 45 43 41 38 37 35 31 26 22 20 18 14 10 6 3 2 3 4 7 9 12 15 17 20 24 26 28 28 30 32 38 40 41 42 42 41 45 48 46
37 41 43 44 45 42 37 34 29 26 23 22 21 19 18 14 9 6 3 1 1 4 7 11 13 16 20 23 26 29 30 33 35 37 39 39 42 44 44 44 43 47 44
35 39 42 41 39 35 34 32 25 24 21 18 17 16 16 12 9 6 4 1 2 6 9 13 15 18 22 26 31 34 35 35 36 37 36 39 42 43 45 46 43 44 45
35 37 36 36 37 38 35 34 32 23 19 18 17 16 13 12 10 7 4 2 5 8 10 13 16 20 23 27 31 34 36 37 36 37 37 41 43 43 44 45 44 46 49
31 33 35 36 36 35 34 32 32 31 26 22 17 14 13 11 9 5 3 2 3 7 11 14 17 21 24 27 32 36 37 38 37 38 40 42 44 43 46 44 44 45 47
33 35 35 36 36 36 36 33 30 29 27 24 23 17 12 9 5 3 3 3 7 9 11 14 18 21 23 27 31 35 36 37 37 40 42 45 47 44 46 45 46 44 42
27 30 33 35 35 32 30 29 28 26 23 21 17 14 10 7 4 3 4 6 8 10 13 15 18 20 23 26 30 34 35 38 39 41 44 46 45 45 45 45 44 47 47
28 28 29 31 31 29 29 28 27 25 21 18 16 13 10 7 4 4 5 7 9 11 13 16 18 21 24 25 29 32 35 37 40 44 47 46 45 48 45 43 43 42 44
26 28 28 28 28 28 28 27 24 21 18 15 14 12 8 5 3 4 6 7 10 12 14 16 19 21 23 26 29 32 35 38 40 46 48 43 48 47 46 42 41 39 42
24 27 28 28 28 28 26 23 21 18 15 14 12 9 5 3 4 5 7 8 11 12 14 16 19 21 23 25 28 32 34 36 39 44 46 45 47 46 43 39 37 36 39
24 26 27 27 26 25 23 20 18 16 15 12 9 6 4 3 3 6 8 10 11 14 16 19 20 22 24 26 29 31 30 33 38 42 43 42 46 42 37 36 34 33 36
22 24 24 24 23 22 20 18 17 14 12 9 7 5 3 3 5 7 9 11 14 16 18 20 22 24 25 26 28 29 29 32 37 41 41 40 41 36 36 34 30 30 34
19 19 20 20 19 18 17 16 13 11 8 6 4 3 2 3 5 8 10 13 15 18 19 22 23 25 27 26 27 27 29 36 38 39 40 40 37 34 33 32 28 28 32
Wind_Direction
213 212 211 210 214 215 221 221 219 217 217 214 214 215 219 223 228 235 246 257 263 268 275 283 287 289 293 297 296 295 293 288 285 301 303 309 306 308 306 305 303 305 305
211 208 207 206 210 211 217 219 217 216 214 212 212 214 218 222 228 234 243 255 260 266 273 280 286 289 293 297 297 297 295 294 291 296 306 308 309 310 308 306 306 305 302
202 202 201 204 207 211 214 216 214 211 210 208 211 214 217 222 227 235 242 250 257 264 271 279 283 287 294 297 298 297 297 295 296 300 305 309 308 310 310 306 305 304 301
197 200 200 203 208 211 214 213 208 207 206 206 208 212 216 221 226 234 242 247 256 263 270 277 284 290 296 299 298 301 307 302 303 303 306 308 308 310 305 308 309 306 308
190 194 199 208 210 211 212 207 204 203 203 206 208 210 214 217 224 232 240 246 252 261 270 280 286 292 298 299 298 298 299 302 303 308 306 305 306 310 310 311 308 310 309
196 199 202 205 209 210 206 200 198 198 201 203 206 211 212 215 222 231 238 243 250 259 271 281 290 297 299 300 300 298 297 300 301 305 303 303 306 308 311 311 309 309 309
203 203 204 205 207 205 200 197 195 196 197 200 202 205 207 212 219 226 234 240 247 260 273 284 292 298 304 302 303 302 302 300 299 299 300 302 306 310 312 309 305 304 301
200 201 204 205 203 199 196 194 192 193 194 197 198 201 204 208 215 221 232 238 249 263 276 288 295 302 304 305 309 305 304 308 306 303 300 306 309 308 303 302 303 305 305
202 202 202 200 197 194 192 191 191 190 192 194 196 197 199 204 208 216 219 232 247 262 281 291 298 304 309 311 306 311 312 310 311 312 307 307 310 309 308 309 307 307 303
201 200 198 197 195 192 191 188 188 190 189 189 188 189 192 197 203 205 217 230 249 272 286 299 308 311 316 319 318 315 312 319 318 317 319 319 320 316 314 312 309 302 300
202 199 196 194 193 192 187 186 185 184 184 182 183 182 185 188 197 209 218 234 260 281 300 304 307 315 321 324 321 319 319 321 322 322 329 327 322 323 328 324 319 306 302
197 193 190 190 190 187 185 181 181 182 179 176 177 174 177 188 200 203 217 242 265 289 298 309 315 322 327 326 324 325 328 329 330 330 327 323 326 328 335 334 329 319 312
193 190 188 186 184 183 181 180 177 176 176 173 174 178 175 186 187 193 216 254 272 284 307 314 323 328 330 330 331 334 337 336 331 328 323 326 331 334 334 331 328 328 323
189 185 183 181 177 178 181 178 175 171 171 176 172 169 177 175 181 193 215 251 287 312 328 331 332 331 332 337 341 343 342 338 333 329 332 336 336 332 330 331 328 334 329
186 180 176 175 176 173 171 167 169 173 181 175 168 175 173 167 170 187 179 170 341 349 340 333 334 340 344 347 347 346 344 343 342 341 339 335 334 333 330 332 328 336 326
180 175 172 170 166 158 156 158 162 158 154 163 165 171 164 166 175 159 144 123 356 342 343 340 347 349 352 352 350 345 346 346 344 341 338 336 333 330 327 330 330 333 325
177 168 164 158 154 158 158 153 143 142 147 150 154 161 167 161 155 150 140 51 351 342 351 351 351 353 354 353 350 347 343 345 343 344 339 343 337 330 328 327 328 333 330
174 165 159 160 163 163 155 148 147 144 142 141 140 147 146 151 145 139 94 21 357 357 1 354 353 356 355 352 351 348 346 345 345 344 343 344 342 330 328 325 328 330 330
164 162 163 162 161 158 156 153 153 155 156 154 152 147 147 144 128 108 79 43 24 11 2 355 354 354 352 350 350 349 349 348 346 345 346 344 341 331 327 326 329 332 333
162 161 160 158 155 153 152 151 152 154 154 148 147 148 146 136 136 107 56 32 16 7 359 352 351 349 349 347 348 350 350 351 348 348 347 343 335 333 328 327 331 333 336
154 156 156 152 151 152 153 153 153 152 147 142 146 145 144 139 119 64 29 15 6 358 351 346 346 346 345 345 344 347 348 349 351 349 346 343 335 331 332 329 332 333 337
153 152 151 152 151 150 150 149 148 145 146 144 141 138 135 127 86 45 20 8 0 350 343 339 340 340 340 341 340 341 342 347 350 347 342 335 334 333 331 329 331 335 340
150 148 146 145 146 149 149 149 148 148 149 145 140 133 127 97 48 23 9 356 353 352 344 337 333 331 333 334 335 336 336 344 348 344 336 335 334 330 327 329 333 335 340
145 147 146 146 146 146 146 146 146 149 144 136 130 125 111 66 27 5 356 345 349 349 345 344 337 330 330 333 336 336 335 345 346 340 336 334 331 327 328 333 333 334 341
147 147 146 146 148 149 145 145 147 145 140 140 132 116 82 27 1 354 346 340 346 343 344 343 340 337 334 333 332 337 339 349 345 338 336 332 331 332 335 333 331 333 338
143 144 144 146 145 142 146 146 144 145 144 137 127 101 46 353 343 342 337 340 341 340 343 341 340 340 339 335 335 339 344 349 339 339 337 334 335 335 338 334 331 333 342
Height
1375 1383 1391 1400 1409 1418 1426 1435 1447 1455 1463 1471 1478 1483 1487 1490 1492 1492 1493 1495 1495 1494 1493 1492 1492 1492 1491 1490 1488 1486 1483 1479 1469 1457 1455 1451 1446 1439 1435 1430 1424 1416 1410
1370 1378 1385 1394 1402 1409 1418 1428 1440 1450 1459 1466 1472 1477 1481 1485 1487 1488 1489 1490 1491 1490 1489 1488 1488 1488 1487 1485 1483 1480 1477 1473 1466 1453 1449 1443 1439 1433 1427 1420 1414 1408 1402
1366 1373 1381 1387 1394 1402 1411 1422 1435 1444 1453 1459 1465 1471 1475 1479 1482 1483 1483 1484 1485 1485 1485 1484 1484 1483 1483 1481 1479 1475 1471 1467 1461 1453 1440 1438 1431 1426 1418 1412 1406 1398 1393
1362 1369 1375 1380 1387 1396 1405 1417 1428 1438 1445 1452 1459 1465 1470 1474 1476 1478 1479 1480 1480 1480 1480 1479 1480 1479 1477 1476 1473 1470 1466 1461 1456 1449 1439 1430 1425 1419 1414 1401 1389 1388 1379
1360 1366 1372 1379 1385 1391 1400 1412 1422 1431 1440 1447 1453 1459 1464 1468 1470 1473 1474 1475 1476 1476 1476 1476 1475 1474 1472 1470 1467 1465 1462 1456 1450 1442 1434 1425 1418 1410 1405 1395 1385 1375 1369
1356 1363 1370 1377 1382 1388 1397 1406 1415 1425 1433 1442 1449 1454 1459 1462 1465 1467 1469 1470 1471 1471 1472 1472 1471 1469 1468 1466 1463 1460 1456 1450 1444 1438 1429 1419 1411 1405 1397 1390 1381 1371 1350
1353 1359 1365 1372 1378 1386 1394 1402 1411 1419 1428 1436 1444 1450 1454 1457 1460 1463 1465 1466 1467 1467 1468 1468 1467 1465 1463 1461 1457 1453 1450 1445 1441 1434 1423 1416 1404 1399 1391 1380 1376 1368 1356
1351 1356 1361 1368 1376 1384 1392 1400 1407 1416 1425 1433 1440 1445 1449 1453 1456 1459 1460 1462 1463 1464 1464 1463 1463 1461 1458 1455 1452 1448 1444 1438 1433 1426 1419 1409 1402 1393 1388 1378 1367 1355 1346
1347 1353 1358 1365 1372 1379 1387 1396 1406 1415 1423 1430 1437 1441 1445 1448 1452 1454 1457 1458 1459 1460 1459 1459 1458 1456 1454 1451 1448 1441 1436 1431 1427 1419 1411 1404 1395 1387 1380 1370 1361 1351 1335
1346 1349 1356 1363 1371 1378 1386 1396 1405 1414 1420 1427 1433 1438 1442 1445 1448 1451 1452 1454 1455 1456 1456 1455 1453 1452 1449 1447 1441 1436 1430 1424 1418 1411 1403 1394 1388 1379 1372 1366 1357 1346 1334
1346 1351 1356 1363 1371 1379 1387 1395 1403 1411 1419 1425 1431 1434 1438 1442 1444 1446 1449 1451 1452 1452 1452 1450 1449 1447 1444 1441 1437 1432 1426 1418 1411 1404 1394 1386 1380 1372 1363 1356 1350 1342 1329
1345 1350 1353 1360 1368 1377 1386 1394 1402 1409 1416 1422 1427 1431 1436 1439 1441 1444 1446 1447 1448 1448 1448 1447 1445 1442 1438 1436 1433 1427 1419 1413 1407 1399 1388 1380 1372 1364 1355 1346 1339 1331 1323
1345 1348 1353 1360 1369 1377 1385 1391 1399 1407 1413 1418 1423 1428 1433 1437 1439 1441 1442 1444 1444 1445 1444 1443 1440 1438 1435 1431 1428 1421 1414 1408 1402 1393 1386 1375 1367 1358 1348 1339 1330 1321 1311
1344 1347 1353 1360 1368 1376 1383 1390 1397 1404 1411 1416 1420 1427 1431 1434 1437 1438 1440 1441 1442 1442 1441 1440 1438 1435 1431 1427 1422 1417 1411 1405 1399 1390 1380 1371 1362 1353 1344 1335 1322 1310 1300
1344 1347 1352 1360 1366 1373 1382 1391 1399 1406 1411 1415 1420 1425 1428 1432 1436 1436 1437 1438 1439 1439 1439 1438 1434 1432 1427 1422 1417 1413 1407 1402 1395 1386 1377 1367 1358 1349 1339 1330 1319 1306 1296
1346 1350 1353 1359 1368 1378 1386 1393 1401 1406 1412 1417 1420 1425 1429 1432 1432 1433 1434 1436 1437 1438 1436 1435 1432 1427 1422 1418 1413 1410 1405 1398 1391 1383 1375 1366 1356 1346 1335 1325 1316 1304 1292
1349 1353 1357 1365 1373 1380 1386 1391 1397 1408 1413 1416 1421 1427 1430 1429 1430 1432 1432 1433 1435 1436 1433 1433 1430 1424 1419 1417 1412 1407 1402 1395 1387 1379 1371 1363 1353 1344 1333 1322 1312 1300 1287
1354 1358 1362 1369 1375 1383 1389 1393 1398 1403 1411 1418 1424 1428 1430 1429 1430 1432 1430 1432 1432 1432 1430 1431 1428 1422 1418 1414 1410 1405 1398 1392 1383 1376 1368 1359 1350 1342 1330 1320 1309 1298 1286
1357 1361 1366 1372 1378 1384 1388 1393 1399 1406 1413 1417 1422 1426 1427 1430 1430 1431 1429 1430 1429 1428 1428 1429 1425 1420 1416 1413 1407 1402 1396 1388 1381 1372 1365 1356 1346 1339 1328 1318 1307 1296 1287
1364 1367 1372 1375 1380 1387 1392 1397 1404 1410 1415 1418 1422 1425 1428 1428 1431 1430 1429 1427 1427 1426 1426 1426 1422 1419 1414 1409 1405 1399 1393 1385 1377 1369 1362 1353 1344 1335 1326 1316 1306 1294 1284
1366 1370 1375 1381 1386 1391 1397 1402 1408 1412 1416 1419 1423 1426 1428 1429 1430 1430 1428 1427 1426 1424 1424 1423 1419 1415 1412 1407 1403 1397 1390 1383 1375 1367 1358 1350 1341 1332 1324 1315 1304 1294 1285
1373 1375 1379 1386 1391 1396 1402 1407 1411 1414 1418 1421 1423 1426 1428 1428 1428 1428 1427 1426 1424 1423 1422 1420 1416 1412 1408 1404 1400 1394 1388 1380 1372 1364 1356 1349 1339 1329 1321 1313 1303 1293 1284
1380 1382 1385 1391 1396 1401 1406 1410 1414 1417 1420 1422 1424 1425 1429 1428 1428 1427 1426 1426 1425 1421 1419 1416 1413 1410 1406 1402 1397 1391 1385 1378 1371 1363 1356 1345 1336 1327 1319 1310 1301 1293 1285
1384 1389 1391 1395 1400 1405 1409 1413 1417 1419 1421 1422 1425 1427 1428 1427 1428 1427 1426 1428 1424 1420 1417 1412 1409 1406 1402 1398 1393 1389 1383 1377 1370 1363 1354 1343 1333 1323 1315 1308 1301 1292 1287
1391 1394 1397 1400 1405 1410 1412 1415 1418 1421 1421 1423 1424 1425 1426 1428 1428 1427 1426 1427 1422 1418 1415 1410 1407 1402 1398 1393 1389 1385 1379 1374 1367 1360 1350 1341 1330 1321 1313 1305 1300 1296 1287
1396 1399 1402 1406 1409 1411 1414 1416 1418 1422 1423 1424 1424 1423 1425 1427 1427 1426 1426 1422 1419 1418 1412 1408 1404 1398 1394 1390 1385 1380 1375 1370 1364 1356 1347 1337 1327 1319 1311 1303 1297 1294 1289